This demonstration page uses our WeatherBlox Daily Observations layout. Learn more.

Left ArrowRight Arrow

41.86663, -103.66717

Hourly Observations for January 16, 2016

Temp ( °F °C ) Dew Point ( °F °C ) Humidity (%) Winds ( mph kmh ) Pressure ( in mb ) Visibility ( mi km ) Precip ( " mm )
12:53 am 00:53 Cloudy 22 -5.6 17 -8.3 82 82 WNW 6 9 29.99 1016 10 16 N/A
1:53 am 01:53 Cloudy 20 -6.7 16 -8.9 85 85 NNW 5 7 30.01 1016 10 16 N/A
2:53 am 02:53 Cloudy 24 -4.4 20 -6.7 84 84 WNW 9 15 29.99 1016 10 16 N/A
3:53 am 03:53 Mostly Clear 22 -5.6 18 -7.8 85 85 W 8 13 30.01 1016 10 16 N/A
4:53 am 04:53 Clear 17 -8.3 15 -9.4 92 92 NNW 5 7 30.06 1018 10 16 N/A
5:53 am 05:53 Mostly Clear 17 -8.3 14 -10 88 88 WNW 6 9 30.08 1019 10 16 N/A
6:53 am 06:53 Clear 15 -9.4 12 -11.1 88 88 NNW 6 9 30.10 1019 10 16 N/A
7:53 am 07:53 Sunny 16 -8.9 12 -11.1 84 84 N 6 9 30.11 1020 10 16 N/A
8:53 am 08:53 Sunny 20 -6.7 14 -10 78 78 NNW 8 13 30.10 1019 10 16 N/A
9:53 am 09:53 Sunny 25 -3.9 14 -10 63 63 WNW 9 15 30.09 1019 10 16 N/A
10:53 am 10:53 Sunny 30 -1.1 14 -10 51 51 W 12 19 30.06 1018 10 16 N/A
11:53 am 11:53 Sunny 33 0.6 13 -10.6 43 43 WNW 15 24 30.01 1016 10 16 N/A
12:53 pm 12:53 Sunny 35 1.7 13 -10.6 40 40 W 17 28 29.96 1015 10 16 N/A
1:53 pm 13:53 Sunny 36 2.2 13 -10.6 39 39 WNW 16 26 29.94 1014 10 16 N/A
2:53 pm 14:53 Sunny 34 1.1 15 -9.4 46 46 WNW 14 22 29.93 1014 10 16 N/A
3:53 pm 15:53 Sunny 33 0.6 17 -8.3 52 52 W 13 20 29.94 1014 10 16 N/A
4:53 pm 16:53 Clear 30 -1.1 18 -7.8 61 61 WNW 5 7 29.97 1015 10 16 N/A
5:53 pm 17:53 Clear 29 -1.7 19 -7.2 66 66 W 6 9 29.98 1015 10 16 N/A
6:53 pm 18:53 Cloudy 28 -2.2 16 -8.9 60 60 NNE 14 22 30.01 1016 10 16 N/A
7:53 pm 19:53 Cloudy 22 -5.6 16 -8.9 78 78 ENE 7 11 30.06 1018 10 16 N/A
8:53 pm 20:53 Cloudy 19 -7.2 15 -9.4 84 84 ENE 5 7 30.08 1019 8 13 N/A
9:00 pm 21:00 Cloudy 19 -7 16 -9 86 86 NNE 9 15 30.15 1021 9 14 N/A
9:40 pm 21:40 Cloudy 19 -7 14 -10 79 79 E 6 9 30.18 1022 9 14 N/A
9:49 pm 21:49 Cloudy 18 -8 14 -10 86 86 N N/A 30.21 1023 8 13 N/A
9:53 pm 21:53 Cloudy with Light Snow 18 -7.8 14 -10 84 84 N N/A 30.10 1019 5 8 N/A
10:51 pm 22:51 Cloudy 16 -9 10 -12 79 79 E 10 17 30.27 1025 10 16 N/A
10:53 pm 22:53 Cloudy 16 -8.9 11 -11.7 80 80 E 9 15 30.11 1020 10 16 N/A
11:53 pm 23:53 Cloudy 15 -9.4 10 -12.2 80 80 E 9 15 30.11 1020 10 16 N/A

Powered by AerisWeather